Date,TemperatureHighF,TemperatureAvgF,TemperatureLowF,DewpointHighF,DewpointAvgF,DewpointLowF,HumidityHigh,HumidityAvg,HumidityLow,PressureMaxIn,PressureMinIn,WindSpeedMaxMPH,WindSpeedAvgMPH,GustSpeedMaxMPH,PrecipitationSumIn
2013-3-1,28,18,10,-100,-100,-100,0,0,100,0.00,40.00,0,0,0,0.00
2013-3-2,27,19,12,-100,-100,-100,0,0,100,0.00,40.00,0,0,0,0.00
2013-3-3,33,26,18,-100,-100,-100,0,0,100,0.00,40.00,0,0,0,0.00
2013-3-4,32,25,21,-100,-100,-100,0,0,100,0.00,40.00,0,0,0,0.00
2013-3-5,23,20,14,-100,-100,-100,0,0,100,0.00,40.00,0,0,0,0.00
2013-3-6,26,16,11,-100,-100,-100,0,0,100,0.00,40.00,0,0,0,0.00
2013-3-7,32,22,15,-100,-100,-100,0,0,100,0.00,40.00,0,0,0,0.00
2013-3-8,41,28,23,-100,-100,-100,0,0,100,0.00,40.00,0,0,0,0.00
2013-3-9,32,29,24,-100,-100,-100,0,0,100,0.00,40.00,0,0,0,0.00
2013-3-10,24,19,11,-100,-100,-100,0,0,100,0.00,40.00,0,0,0,0.00
2013-3-11,29,17,6,-100,-100,-100,0,0,100,0.00,40.00,0,0,0,0.00
2013-3-12,24,20,13,-100,-100,-100,0,0,100,0.00,40.00,0,0,0,0.00
2013-3-13,31,19,5,-100,-100,-100,0,0,100,0.00,40.00,0,0,0,0.00
2013-3-14,47,34,25,-100,-100,-100,0,0,100,0.00,40.00,0,0,0,0.00
2013-3-15,35,26,21,-100,-100,-100,0,0,100,0.00,40.00,0,0,0,0.00
2013-3-16,23,12,4,-100,-100,-100,0,0,100,0.00,40.00,0,0,0,0.00
2013-3-17,28,14,2,-100,-100,-100,0,0,100,0.00,40.00,0,0,0,0.00
2013-3-18,31,13,5,-100,-100,-100,0,0,100,0.00,40.00,0,0,1,0.00
2013-3-19,21,9,-3,-100,-100,-100,0,0,100,0.00,40.00,0,0,0,0.00
2013-3-20,19,8,-3,-100,-100,-100,0,0,100,0.00,40.00,0,0,0,0.00
2013-3-21,25,12,-1,-100,-100,-100,0,0,100,0.00,40.00,0,0,0,0.00
2013-3-22,36,18,6,-100,-100,-100,0,0,100,0.00,40.00,0,0,0,0.00
2013-3-23,37,22,14,-100,-100,-100,0,0,100,0.00,40.00,0,0,0,0.00
2013-3-24,29,21,15,-100,-100,-100,0,0,100,0.00,40.00,0,0,0,0.00
2013-3-25,28,20,12,-100,-100,-100,0,0,100,0.00,40.00,0,0,0,0.00
2013-3-26,38,20,11,-100,-100,-100,0,0,100,0.00,40.00,0,0,0,0.00
2013-3-27,41,29,17,-100,-100,-100,0,0,100,0.00,40.00,0,0,0,0.00
2013-3-28,47,36,29,-100,-100,-100,0,0,100,0.00,40.00,0,0,0,0.00
2013-3-29,57,44,35,-100,-100,-100,0,0,100,0.00,40.00,0,0,0,0.00
2013-3-30,45,37,30,-100,-100,-100,0,0,100,0.00,40.00,0,0,0,0.00
2013-3-31,31,27,16,-100,-100,-100,0,0,100,0.00,40.00,0,0,0,0.00